Index of /20260507/WXO-DD/model_rdps/10km/00/080
Name Last modified Size Description
Parent Directory -
20260507T00Z_MSC_RDPS_AbsoluteVorticity_IsbL-0250_RLatLon0.09_PT080H.grib2 2026-05-07 03:20 606K
20260507T00Z_MSC_RDPS_AbsoluteVorticity_IsbL-0500_RLatLon0.09_PT080H.grib2 2026-05-07 03:20 566K
20260507T00Z_MSC_RDPS_AbsoluteVorticity_IsbL-0700_RLatLon0.09_PT080H.grib2 2026-05-07 03:20 617K
20260507T00Z_MSC_RDPS_AbsoluteVorticity_IsbL-0850_RLatLon0.09_PT080H.grib2 2026-05-07 03:20 783K
20260507T00Z_MSC_RDPS_AirTemp_AGL-120m_RLatLon0.09_PT080H.grib2 2026-05-07 03:20 376K
20260507T00Z_MSC_RDPS_AirTemp_AGL-2m_RLatLon0.09_PT080H.grib2 2026-05-07 03:20 622K
20260507T00Z_MSC_RDPS_AirTemp_AGL-40m_RLatLon0.09_PT080H.grib2 2026-05-07 03:20 390K
20260507T00Z_MSC_RDPS_AirTemp_AGL-80m_RLatLon0.09_PT080H.grib2 2026-05-07 03:20 382K
20260507T00Z_MSC_RDPS_AirTemp_IsbL-0001_RLatLon0.09_PT080H.grib2 2026-05-07 03:20 230K
20260507T00Z_MSC_RDPS_AirTemp_IsbL-0005_RLatLon0.09_PT080H.grib2 2026-05-07 03:20 377K
20260507T00Z_MSC_RDPS_AirTemp_IsbL-0010_RLatLon0.09_PT080H.grib2 2026-05-07 03:20 390K
20260507T00Z_MSC_RDPS_AirTemp_IsbL-0020_RLatLon0.09_PT080H.grib2 2026-05-07 03:20 316K
20260507T00Z_MSC_RDPS_AirTemp_IsbL-0030_RLatLon0.09_PT080H.grib2 2026-05-07 03:20 333K
20260507T00Z_MSC_RDPS_AirTemp_IsbL-0050_RLatLon0.09_PT080H.grib2 2026-05-07 03:20 308K
20260507T00Z_MSC_RDPS_AirTemp_IsbL-0100_RLatLon0.09_PT080H.grib2 2026-05-07 03:20 428K
20260507T00Z_MSC_RDPS_AirTemp_IsbL-0150_RLatLon0.09_PT080H.grib2 2026-05-07 03:20 411K
20260507T00Z_MSC_RDPS_AirTemp_IsbL-0175_RLatLon0.09_PT080H.grib2 2026-05-07 03:20 404K
20260507T00Z_MSC_RDPS_AirTemp_IsbL-0200_RLatLon0.09_PT080H.grib2 2026-05-07 03:20 407K
20260507T00Z_MSC_RDPS_AirTemp_IsbL-0225_RLatLon0.09_PT080H.grib2 2026-05-07 03:20 409K
20260507T00Z_MSC_RDPS_AirTemp_IsbL-0250_RLatLon0.09_PT080H.grib2 2026-05-07 03:20 422K
20260507T00Z_MSC_RDPS_AirTemp_IsbL-0275_RLatLon0.09_PT080H.grib2 2026-05-07 03:20 403K
20260507T00Z_MSC_RDPS_AirTemp_IsbL-0300_RLatLon0.09_PT080H.grib2 2026-05-07 03:20 434K
20260507T00Z_MSC_RDPS_AirTemp_IsbL-0350_RLatLon0.09_PT080H.grib2 2026-05-07 03:20 421K
20260507T00Z_MSC_RDPS_AirTemp_IsbL-0400_RLatLon0.09_PT080H.grib2 2026-05-07 03:20 425K
20260507T00Z_MSC_RDPS_AirTemp_IsbL-0450_RLatLon0.09_PT080H.grib2 2026-05-07 03:20 434K
20260507T00Z_MSC_RDPS_AirTemp_IsbL-0500_RLatLon0.09_PT080H.grib2 2026-05-07 03:20 444K
20260507T00Z_MSC_RDPS_AirTemp_IsbL-0550_RLatLon0.09_PT080H.grib2 2026-05-07 03:20 461K
20260507T00Z_MSC_RDPS_AirTemp_IsbL-0600_RLatLon0.09_PT080H.grib2 2026-05-07 03:20 478K
20260507T00Z_MSC_RDPS_AirTemp_IsbL-0650_RLatLon0.09_PT080H.grib2 2026-05-07 03:20 493K
20260507T00Z_MSC_RDPS_AirTemp_IsbL-0700_RLatLon0.09_PT080H.grib2 2026-05-07 03:20 519K
20260507T00Z_MSC_RDPS_AirTemp_IsbL-0750_RLatLon0.09_PT080H.grib2 2026-05-07 03:20 561K
20260507T00Z_MSC_RDPS_AirTemp_IsbL-0800_RLatLon0.09_PT080H.grib2 2026-05-07 03:20 580K
20260507T00Z_MSC_RDPS_AirTemp_IsbL-0850_RLatLon0.09_PT080H.grib2 2026-05-07 03:20 634K
20260507T00Z_MSC_RDPS_AirTemp_IsbL-0875_RLatLon0.09_PT080H.grib2 2026-05-07 03:20 523K
20260507T00Z_MSC_RDPS_AirTemp_IsbL-0900_RLatLon0.09_PT080H.grib2 2026-05-07 03:20 528K
20260507T00Z_MSC_RDPS_AirTemp_IsbL-0925_RLatLon0.09_PT080H.grib2 2026-05-07 03:20 527K
20260507T00Z_MSC_RDPS_AirTemp_IsbL-0950_RLatLon0.09_PT080H.grib2 2026-05-07 03:20 525K
20260507T00Z_MSC_RDPS_AirTemp_IsbL-0970_RLatLon0.09_PT080H.grib2 2026-05-07 03:20 520K
20260507T00Z_MSC_RDPS_AirTemp_IsbL-0985_RLatLon0.09_PT080H.grib2 2026-05-07 03:20 505K
20260507T00Z_MSC_RDPS_AirTemp_IsbL-1000_RLatLon0.09_PT080H.grib2 2026-05-07 03:20 490K
20260507T00Z_MSC_RDPS_AirTemp_IsbL-1015_RLatLon0.09_PT080H.grib2 2026-05-07 03:20 494K
20260507T00Z_MSC_RDPS_Albedo_Sfc_RLatLon0.09_PT080H.grib2 2026-05-07 03:20 160K
20260507T00Z_MSC_RDPS_CAPE_Sfc_RLatLon0.09_PT080H.grib2 2026-05-07 03:20 1.7M
20260507T00Z_MSC_RDPS_CIN_Sfc_RLatLon0.09_PT080H.grib2 2026-05-07 03:20 1.2M
20260507T00Z_MSC_RDPS_CloudWater_EAtm_RLatLon0.09_PT080H.grib2 2026-05-07 03:20 225K
20260507T00Z_MSC_RDPS_ConvectivePrecip-Accum_Sfc_RLatLon0.09_PT080H.grib2 2026-05-07 03:20 1.2M
20260507T00Z_MSC_RDPS_DewPointDepression_AGL-2m_RLatLon0.09_PT080H.grib2 2026-05-07 03:20 395K
20260507T00Z_MSC_RDPS_DewPointDepression_IsbL-0001_RLatLon0.09_PT080H.grib2 2026-05-07 03:20 193
20260507T00Z_MSC_RDPS_DewPointDepression_IsbL-0005_RLatLon0.09_PT080H.grib2 2026-05-07 03:20 193
20260507T00Z_MSC_RDPS_DewPointDepression_IsbL-0010_RLatLon0.09_PT080H.grib2 2026-05-07 03:20 193
20260507T00Z_MSC_RDPS_DewPointDepression_IsbL-0020_RLatLon0.09_PT080H.grib2 2026-05-07 03:20 193
20260507T00Z_MSC_RDPS_DewPointDepression_IsbL-0030_RLatLon0.09_PT080H.grib2 2026-05-07 03:20 1.0K
20260507T00Z_MSC_RDPS_DewPointDepression_IsbL-0050_RLatLon0.09_PT080H.grib2 2026-05-07 03:20 107K
20260507T00Z_MSC_RDPS_DewPointDepression_IsbL-0100_RLatLon0.09_PT080H.grib2 2026-05-07 03:20 109K
20260507T00Z_MSC_RDPS_DewPointDepression_IsbL-0150_RLatLon0.09_PT080H.grib2 2026-05-07 03:20 142K
20260507T00Z_MSC_RDPS_DewPointDepression_IsbL-0175_RLatLon0.09_PT080H.grib2 2026-05-07 03:20 168K
20260507T00Z_MSC_RDPS_DewPointDepression_IsbL-0200_RLatLon0.09_PT080H.grib2 2026-05-07 03:20 212K
20260507T00Z_MSC_RDPS_DewPointDepression_IsbL-0225_RLatLon0.09_PT080H.grib2 2026-05-07 03:20 259K
20260507T00Z_MSC_RDPS_DewPointDepression_IsbL-0250_RLatLon0.09_PT080H.grib2 2026-05-07 03:20 302K
20260507T00Z_MSC_RDPS_DewPointDepression_IsbL-0275_RLatLon0.09_PT080H.grib2 2026-05-07 03:20 308K
20260507T00Z_MSC_RDPS_DewPointDepression_IsbL-0300_RLatLon0.09_PT080H.grib2 2026-05-07 03:20 320K
20260507T00Z_MSC_RDPS_DewPointDepression_IsbL-0350_RLatLon0.09_PT080H.grib2 2026-05-07 03:20 326K
20260507T00Z_MSC_RDPS_DewPointDepression_IsbL-0400_RLatLon0.09_PT080H.grib2 2026-05-07 03:20 335K
20260507T00Z_MSC_RDPS_DewPointDepression_IsbL-0450_RLatLon0.09_PT080H.grib2 2026-05-07 03:20 339K
20260507T00Z_MSC_RDPS_DewPointDepression_IsbL-0500_RLatLon0.09_PT080H.grib2 2026-05-07 03:20 345K
20260507T00Z_MSC_RDPS_DewPointDepression_IsbL-0550_RLatLon0.09_PT080H.grib2 2026-05-07 03:20 354K
20260507T00Z_MSC_RDPS_DewPointDepression_IsbL-0600_RLatLon0.09_PT080H.grib2 2026-05-07 03:20 370K
20260507T00Z_MSC_RDPS_DewPointDepression_IsbL-0650_RLatLon0.09_PT080H.grib2 2026-05-07 03:20 381K
20260507T00Z_MSC_RDPS_DewPointDepression_IsbL-0700_RLatLon0.09_PT080H.grib2 2026-05-07 03:20 391K
20260507T00Z_MSC_RDPS_DewPointDepression_IsbL-0750_RLatLon0.09_PT080H.grib2 2026-05-07 03:20 408K
20260507T00Z_MSC_RDPS_DewPointDepression_IsbL-0800_RLatLon0.09_PT080H.grib2 2026-05-07 03:20 447K
20260507T00Z_MSC_RDPS_DewPointDepression_IsbL-0850_RLatLon0.09_PT080H.grib2 2026-05-07 03:20 473K
20260507T00Z_MSC_RDPS_DewPointDepression_IsbL-0875_RLatLon0.09_PT080H.grib2 2026-05-07 03:20 467K
20260507T00Z_MSC_RDPS_DewPointDepression_IsbL-0900_RLatLon0.09_PT080H.grib2 2026-05-07 03:20 453K
20260507T00Z_MSC_RDPS_DewPointDepression_IsbL-0925_RLatLon0.09_PT080H.grib2 2026-05-07 03:20 442K
20260507T00Z_MSC_RDPS_DewPointDepression_IsbL-0950_RLatLon0.09_PT080H.grib2 2026-05-07 03:20 436K
20260507T00Z_MSC_RDPS_DewPointDepression_IsbL-0970_RLatLon0.09_PT080H.grib2 2026-05-07 03:20 430K
20260507T00Z_MSC_RDPS_DewPointDepression_IsbL-0985_RLatLon0.09_PT080H.grib2 2026-05-07 03:20 425K
20260507T00Z_MSC_RDPS_DewPointDepression_IsbL-1000_RLatLon0.09_PT080H.grib2 2026-05-07 03:20 419K
20260507T00Z_MSC_RDPS_DewPointDepression_IsbL-1015_RLatLon0.09_PT080H.grib2 2026-05-07 03:20 410K
20260507T00Z_MSC_RDPS_DewPoint_AGL-2m_RLatLon0.09_PT080H.grib2 2026-05-07 03:20 389K
20260507T00Z_MSC_RDPS_DownwardLongwaveRadiationFlux-Accum_Sfc_RLatLon0.09_PT080H.grib2 2026-05-07 03:20 438K
20260507T00Z_MSC_RDPS_DownwardShortwaveRadiationFlux-Accum_NTAtm_RLatLon0.09_PT080H.grib2 2026-05-07 03:20 106K
20260507T00Z_MSC_RDPS_DownwardShortwaveRadiationFlux-Accum_Sfc_RLatLon0.09_PT080H.grib2 2026-05-07 03:20 637K
20260507T00Z_MSC_RDPS_FreezingRain-Accum1h_Sfc_RLatLon0.09_PT080H.grib2 2026-05-07 03:20 51K
20260507T00Z_MSC_RDPS_FreezingRain-Accum_Sfc_RLatLon0.09_PT080H.grib2 2026-05-07 03:20 204K
20260507T00Z_MSC_RDPS_GeopotentialHeight_IsbL-0001_RLatLon0.09_PT080H.grib2 2026-05-07 03:20 314K
20260507T00Z_MSC_RDPS_GeopotentialHeight_IsbL-0005_RLatLon0.09_PT080H.grib2 2026-05-07 03:20 306K
20260507T00Z_MSC_RDPS_GeopotentialHeight_IsbL-0010_RLatLon0.09_PT080H.grib2 2026-05-07 03:20 306K
20260507T00Z_MSC_RDPS_GeopotentialHeight_IsbL-0020_RLatLon0.09_PT080H.grib2 2026-05-07 03:20 306K
20260507T00Z_MSC_RDPS_GeopotentialHeight_IsbL-0030_RLatLon0.09_PT080H.grib2 2026-05-07 03:20 403K
20260507T00Z_MSC_RDPS_GeopotentialHeight_IsbL-0050_RLatLon0.09_PT080H.grib2 2026-05-07 03:20 308K
20260507T00Z_MSC_RDPS_GeopotentialHeight_IsbL-0100_RLatLon0.09_PT080H.grib2 2026-05-07 03:20 285K
20260507T00Z_MSC_RDPS_GeopotentialHeight_IsbL-0150_RLatLon0.09_PT080H.grib2 2026-05-07 03:20 227K
20260507T00Z_MSC_RDPS_GeopotentialHeight_IsbL-0175_RLatLon0.09_PT080H.grib2 2026-05-07 03:20 230K
20260507T00Z_MSC_RDPS_GeopotentialHeight_IsbL-0200_RLatLon0.09_PT080H.grib2 2026-05-07 03:20 231K
20260507T00Z_MSC_RDPS_GeopotentialHeight_IsbL-0225_RLatLon0.09_PT080H.grib2 2026-05-07 03:20 234K
20260507T00Z_MSC_RDPS_GeopotentialHeight_IsbL-0250_RLatLon0.09_PT080H.grib2 2026-05-07 03:20 236K
20260507T00Z_MSC_RDPS_GeopotentialHeight_IsbL-0275_RLatLon0.09_PT080H.grib2 2026-05-07 03:20 236K
20260507T00Z_MSC_RDPS_GeopotentialHeight_IsbL-0300_RLatLon0.09_PT080H.grib2 2026-05-07 03:20 235K
20260507T00Z_MSC_RDPS_GeopotentialHeight_IsbL-0350_RLatLon0.09_PT080H.grib2 2026-05-07 03:20 232K
20260507T00Z_MSC_RDPS_GeopotentialHeight_IsbL-0400_RLatLon0.09_PT080H.grib2 2026-05-07 03:20 228K
20260507T00Z_MSC_RDPS_GeopotentialHeight_IsbL-0450_RLatLon0.09_PT080H.grib2 2026-05-07 03:20 296K
20260507T00Z_MSC_RDPS_GeopotentialHeight_IsbL-0500_RLatLon0.09_PT080H.grib2 2026-05-07 03:20 290K
20260507T00Z_MSC_RDPS_GeopotentialHeight_IsbL-0550_RLatLon0.09_PT080H.grib2 2026-05-07 03:20 287K
20260507T00Z_MSC_RDPS_GeopotentialHeight_IsbL-0600_RLatLon0.09_PT080H.grib2 2026-05-07 03:20 284K
20260507T00Z_MSC_RDPS_GeopotentialHeight_IsbL-0650_RLatLon0.09_PT080H.grib2 2026-05-07 03:20 253K
20260507T00Z_MSC_RDPS_GeopotentialHeight_IsbL-0700_RLatLon0.09_PT080H.grib2 2026-05-07 03:20 252K
20260507T00Z_MSC_RDPS_GeopotentialHeight_IsbL-0750_RLatLon0.09_PT080H.grib2 2026-05-07 03:20 255K
20260507T00Z_MSC_RDPS_GeopotentialHeight_IsbL-0800_RLatLon0.09_PT080H.grib2 2026-05-07 03:20 346K
20260507T00Z_MSC_RDPS_GeopotentialHeight_IsbL-0850_RLatLon0.09_PT080H.grib2 2026-05-07 03:20 357K
20260507T00Z_MSC_RDPS_GeopotentialHeight_IsbL-0875_RLatLon0.09_PT080H.grib2 2026-05-07 03:20 359K
20260507T00Z_MSC_RDPS_GeopotentialHeight_IsbL-0900_RLatLon0.09_PT080H.grib2 2026-05-07 03:20 364K
20260507T00Z_MSC_RDPS_GeopotentialHeight_IsbL-0925_RLatLon0.09_PT080H.grib2 2026-05-07 03:20 366K
20260507T00Z_MSC_RDPS_GeopotentialHeight_IsbL-0950_RLatLon0.09_PT080H.grib2 2026-05-07 03:20 370K
20260507T00Z_MSC_RDPS_GeopotentialHeight_IsbL-0970_RLatLon0.09_PT080H.grib2 2026-05-07 03:20 375K
20260507T00Z_MSC_RDPS_GeopotentialHeight_IsbL-0985_RLatLon0.09_PT080H.grib2 2026-05-07 03:20 383K
20260507T00Z_MSC_RDPS_GeopotentialHeight_IsbL-1000_RLatLon0.09_PT080H.grib2 2026-05-07 03:20 395K
20260507T00Z_MSC_RDPS_GeopotentialHeight_IsbL-1015_RLatLon0.09_PT080H.grib2 2026-05-07 03:20 410K
20260507T00Z_MSC_RDPS_HighLowPressure_MSL_RLatLon0.09_PT080H.json 2026-05-07 02:58 21K
20260507T00Z_MSC_RDPS_Humidex_Sfc_RLatLon0.09_PT080H.grib2 2026-05-07 03:20 2.4M
20260507T00Z_MSC_RDPS_IcePellets-Accum1h_Sfc_RLatLon0.09_PT080H.grib2 2026-05-07 03:20 8.1K
20260507T00Z_MSC_RDPS_IcePellets-Accum_Sfc_RLatLon0.09_PT080H.grib2 2026-05-07 03:20 31K
20260507T00Z_MSC_RDPS_KIndex_Sfc_RLatLon0.09_PT080H.grib2 2026-05-07 03:20 2.5M
20260507T00Z_MSC_RDPS_LatentHeatNetFlux_Sfc_RLatLon0.09_PT080H.grib2 2026-05-07 03:20 322K
20260507T00Z_MSC_RDPS_LiftedIndex-MU-VT_IsbL-0500_RLatLon0.09_PT080H.grib2 2026-05-07 03:20 2.4M
20260507T00Z_MSC_RDPS_NetLongwaveRadiationFlux-Accum_Sfc_RLatLon0.09_PT080H.grib2 2026-05-07 03:20 488K
20260507T00Z_MSC_RDPS_NetShortwaveRadiationFlux-Accum_Sfc_RLatLon0.09_PT080H.grib2 2026-05-07 03:20 640K
20260507T00Z_MSC_RDPS_PlanetaryBoundaryLayerHeight_Sfc_RLatLon0.09_PT080H.grib2 2026-05-07 03:20 1.1M
20260507T00Z_MSC_RDPS_Precip-Accum1h_Sfc_RLatLon0.09_PT080H.grib2 2026-05-07 03:20 1.2M
20260507T00Z_MSC_RDPS_Precip-Accum_Sfc_RLatLon0.09_PT080H.grib2 2026-05-07 03:20 2.1M
20260507T00Z_MSC_RDPS_PrecipRate_Sfc_RLatLon0.09_PT080H.grib2 2026-05-07 03:20 168K
20260507T00Z_MSC_RDPS_PrecipType-Instant_Sfc_RLatLon0.09_PT080H.grib2 2026-05-07 03:20 588K
20260507T00Z_MSC_RDPS_Pressure-Trend3h_Sfc_RLatLon0.09_PT080H.grib2 2026-05-07 03:20 1.2M
20260507T00Z_MSC_RDPS_Pressure_MSL_RLatLon0.09_PT080H.grib2 2026-05-07 03:20 324K
20260507T00Z_MSC_RDPS_Pressure_PVU-1.5_RLatLon0.09_PT080H.grib2 2026-05-07 03:20 2.5M
20260507T00Z_MSC_RDPS_Pressure_PVU-1_RLatLon0.09_PT080H.grib2 2026-05-07 03:20 2.4M
20260507T00Z_MSC_RDPS_Pressure_PVU-2_RLatLon0.09_PT080H.grib2 2026-05-07 03:20 2.4M
20260507T00Z_MSC_RDPS_Pressure_Sfc_RLatLon0.09_PT080H.grib2 2026-05-07 03:20 498K
20260507T00Z_MSC_RDPS_RadiativeTemp_Sfc_RLatLon0.09_PT080H.grib2 2026-05-07 03:20 389K
20260507T00Z_MSC_RDPS_Rain-Accum1h_Sfc_RLatLon0.09_PT080H.grib2 2026-05-07 03:20 644K
20260507T00Z_MSC_RDPS_Rain-Accum_Sfc_RLatLon0.09_PT080H.grib2 2026-05-07 03:20 1.9M
20260507T00Z_MSC_RDPS_RelativeHumidity_AGL-2m_RLatLon0.09_PT080H.grib2 2026-05-07 03:20 1.0M
20260507T00Z_MSC_RDPS_RelativeHumidity_IsbL-0010_RLatLon0.09_PT080H.grib2 2026-05-07 03:20 574K
20260507T00Z_MSC_RDPS_RelativeHumidity_IsbL-0020_RLatLon0.09_PT080H.grib2 2026-05-07 03:20 626K
20260507T00Z_MSC_RDPS_RelativeHumidity_IsbL-0030_RLatLon0.09_PT080H.grib2 2026-05-07 03:20 626K
20260507T00Z_MSC_RDPS_RelativeHumidity_IsbL-0050_RLatLon0.09_PT080H.grib2 2026-05-07 03:20 352K
20260507T00Z_MSC_RDPS_RelativeHumidity_IsbL-0100_RLatLon0.09_PT080H.grib2 2026-05-07 03:20 275K
20260507T00Z_MSC_RDPS_RelativeHumidity_IsbL-0150_RLatLon0.09_PT080H.grib2 2026-05-07 03:20 408K
20260507T00Z_MSC_RDPS_RelativeHumidity_IsbL-0175_RLatLon0.09_PT080H.grib2 2026-05-07 03:20 464K
20260507T00Z_MSC_RDPS_RelativeHumidity_IsbL-0200_RLatLon0.09_PT080H.grib2 2026-05-07 03:20 537K
20260507T00Z_MSC_RDPS_RelativeHumidity_IsbL-0225_RLatLon0.09_PT080H.grib2 2026-05-07 03:20 612K
20260507T00Z_MSC_RDPS_RelativeHumidity_IsbL-0250_RLatLon0.09_PT080H.grib2 2026-05-07 03:20 692K
20260507T00Z_MSC_RDPS_RelativeHumidity_IsbL-0275_RLatLon0.09_PT080H.grib2 2026-05-07 03:20 719K
20260507T00Z_MSC_RDPS_RelativeHumidity_IsbL-0300_RLatLon0.09_PT080H.grib2 2026-05-07 03:20 756K
20260507T00Z_MSC_RDPS_RelativeHumidity_IsbL-0350_RLatLon0.09_PT080H.grib2 2026-05-07 03:20 771K
20260507T00Z_MSC_RDPS_RelativeHumidity_IsbL-0400_RLatLon0.09_PT080H.grib2 2026-05-07 03:20 787K
20260507T00Z_MSC_RDPS_RelativeHumidity_IsbL-0450_RLatLon0.09_PT080H.grib2 2026-05-07 03:20 795K
20260507T00Z_MSC_RDPS_RelativeHumidity_IsbL-0500_RLatLon0.09_PT080H.grib2 2026-05-07 03:20 799K
20260507T00Z_MSC_RDPS_RelativeHumidity_IsbL-0550_RLatLon0.09_PT080H.grib2 2026-05-07 03:20 813K
20260507T00Z_MSC_RDPS_RelativeHumidity_IsbL-0600_RLatLon0.09_PT080H.grib2 2026-05-07 03:20 835K
20260507T00Z_MSC_RDPS_RelativeHumidity_IsbL-0650_RLatLon0.09_PT080H.grib2 2026-05-07 03:20 851K
20260507T00Z_MSC_RDPS_RelativeHumidity_IsbL-0700_RLatLon0.09_PT080H.grib2 2026-05-07 03:20 874K
20260507T00Z_MSC_RDPS_RelativeHumidity_IsbL-0750_RLatLon0.09_PT080H.grib2 2026-05-07 03:20 923K
20260507T00Z_MSC_RDPS_RelativeHumidity_IsbL-0800_RLatLon0.09_PT080H.grib2 2026-05-07 03:20 1.0M
20260507T00Z_MSC_RDPS_RelativeHumidity_IsbL-0850_RLatLon0.09_PT080H.grib2 2026-05-07 03:20 1.0M
20260507T00Z_MSC_RDPS_RelativeHumidity_IsbL-0875_RLatLon0.09_PT080H.grib2 2026-05-07 03:20 1.0M
20260507T00Z_MSC_RDPS_RelativeHumidity_IsbL-0900_RLatLon0.09_PT080H.grib2 2026-05-07 03:20 1.1M
20260507T00Z_MSC_RDPS_RelativeHumidity_IsbL-0925_RLatLon0.09_PT080H.grib2 2026-05-07 03:20 1.1M
20260507T00Z_MSC_RDPS_RelativeHumidity_IsbL-0950_RLatLon0.09_PT080H.grib2 2026-05-07 03:20 1.1M
20260507T00Z_MSC_RDPS_RelativeHumidity_IsbL-0970_RLatLon0.09_PT080H.grib2 2026-05-07 03:20 1.0M
20260507T00Z_MSC_RDPS_RelativeHumidity_IsbL-0985_RLatLon0.09_PT080H.grib2 2026-05-07 03:20 1.0M
20260507T00Z_MSC_RDPS_RelativeHumidity_IsbL-1000_RLatLon0.09_PT080H.grib2 2026-05-07 03:20 1.0M
20260507T00Z_MSC_RDPS_RelativeHumidity_IsbL-1015_RLatLon0.09_PT080H.grib2 2026-05-07 03:20 1.0M
20260507T00Z_MSC_RDPS_Runoff-Accum_Sfc_RLatLon0.09_PT080H.grib2 2026-05-07 03:20 50K
20260507T00Z_MSC_RDPS_SWEATIndex_Sfc_RLatLon0.09_PT080H.grib2 2026-05-07 03:20 2.4M
20260507T00Z_MSC_RDPS_SeeingIndex_EAtm_RLatLon0.09_PT080H.grib2 2026-05-07 03:20 1.1M
20260507T00Z_MSC_RDPS_SensibleHeatNetFlux_Sfc_RLatLon0.09_PT080H.grib2 2026-05-07 03:20 294K
20260507T00Z_MSC_RDPS_ShowalterIndex_IsbL-0500_RLatLon0.09_PT080H.grib2 2026-05-07 03:20 2.6M
20260507T00Z_MSC_RDPS_SkyTransparencyIndex_EAtm_RLatLon0.09_PT080H.grib2 2026-05-07 03:20 695K
20260507T00Z_MSC_RDPS_Snow-Accum1h_Sfc_RLatLon0.09_PT080H.grib2 2026-05-07 03:20 455K
20260507T00Z_MSC_RDPS_Snow-Accum_Sfc_RLatLon0.09_PT080H.grib2 2026-05-07 03:20 700K
20260507T00Z_MSC_RDPS_SnowDensity_Sfc_RLatLon0.09_PT080H.grib2 2026-05-07 03:20 172K
20260507T00Z_MSC_RDPS_SnowDepth_Sfc_RLatLon0.09_PT080H.grib2 2026-05-07 03:20 624K
20260507T00Z_MSC_RDPS_SoilTemp_DBS-0to10cm_RLatLon0.09_PT080H.grib2 2026-05-07 03:20 244K
20260507T00Z_MSC_RDPS_SoilTemp_Sfc_RLatLon0.09_PT080H.grib2 2026-05-07 03:20 271K
20260507T00Z_MSC_RDPS_SoilVolumetricIceContent_Sfc_RLatLon0.09_PT080H.grib2 2026-05-07 03:20 143K
20260507T00Z_MSC_RDPS_SoilVolumetricWaterContent_DBS-0to10cm_RLatLon0.09_PT080H.grib2 2026-05-07 03:20 293K
20260507T00Z_MSC_RDPS_SoilVolumetricWaterContent_DBS-0to1cm_RLatLon0.09_PT080H.grib2 2026-05-07 03:20 342K
20260507T00Z_MSC_RDPS_SpecificHumidity_AGL-120m_RLatLon0.09_PT080H.grib2 2026-05-07 03:20 495K
20260507T00Z_MSC_RDPS_SpecificHumidity_AGL-2m_RLatLon0.09_PT080H.grib2 2026-05-07 03:20 665K
20260507T00Z_MSC_RDPS_SpecificHumidity_AGL-40m_RLatLon0.09_PT080H.grib2 2026-05-07 03:20 500K
20260507T00Z_MSC_RDPS_SpecificHumidity_AGL-80m_RLatLon0.09_PT080H.grib2 2026-05-07 03:20 496K
20260507T00Z_MSC_RDPS_SpecificHumidity_IsbL-0001_RLatLon0.09_PT080H.grib2 2026-05-07 03:20 357K
20260507T00Z_MSC_RDPS_SpecificHumidity_IsbL-0005_RLatLon0.09_PT080H.grib2 2026-05-07 03:20 364K
20260507T00Z_MSC_RDPS_SpecificHumidity_IsbL-0010_RLatLon0.09_PT080H.grib2 2026-05-07 03:20 390K
20260507T00Z_MSC_RDPS_SpecificHumidity_IsbL-0020_RLatLon0.09_PT080H.grib2 2026-05-07 03:20 482K
20260507T00Z_MSC_RDPS_SpecificHumidity_IsbL-0030_RLatLon0.09_PT080H.grib2 2026-05-07 03:20 365K
20260507T00Z_MSC_RDPS_SpecificHumidity_IsbL-0050_RLatLon0.09_PT080H.grib2 2026-05-07 03:20 470K
20260507T00Z_MSC_RDPS_SpecificHumidity_IsbL-0100_RLatLon0.09_PT080H.grib2 2026-05-07 03:20 403K
20260507T00Z_MSC_RDPS_SpecificHumidity_IsbL-0150_RLatLon0.09_PT080H.grib2 2026-05-07 03:20 447K
20260507T00Z_MSC_RDPS_SpecificHumidity_IsbL-0175_RLatLon0.09_PT080H.grib2 2026-05-07 03:20 443K
20260507T00Z_MSC_RDPS_SpecificHumidity_IsbL-0200_RLatLon0.09_PT080H.grib2 2026-05-07 03:20 463K
20260507T00Z_MSC_RDPS_SpecificHumidity_IsbL-0225_RLatLon0.09_PT080H.grib2 2026-05-07 03:20 454K
20260507T00Z_MSC_RDPS_SpecificHumidity_IsbL-0250_RLatLon0.09_PT080H.grib2 2026-05-07 03:20 565K
20260507T00Z_MSC_RDPS_SpecificHumidity_IsbL-0275_RLatLon0.09_PT080H.grib2 2026-05-07 03:20 479K
20260507T00Z_MSC_RDPS_SpecificHumidity_IsbL-0300_RLatLon0.09_PT080H.grib2 2026-05-07 03:20 449K
20260507T00Z_MSC_RDPS_SpecificHumidity_IsbL-0350_RLatLon0.09_PT080H.grib2 2026-05-07 03:20 443K
20260507T00Z_MSC_RDPS_SpecificHumidity_IsbL-0400_RLatLon0.09_PT080H.grib2 2026-05-07 03:20 527K
20260507T00Z_MSC_RDPS_SpecificHumidity_IsbL-0450_RLatLon0.09_PT080H.grib2 2026-05-07 03:20 580K
20260507T00Z_MSC_RDPS_SpecificHumidity_IsbL-0500_RLatLon0.09_PT080H.grib2 2026-05-07 03:20 516K
20260507T00Z_MSC_RDPS_SpecificHumidity_IsbL-0550_RLatLon0.09_PT080H.grib2 2026-05-07 03:20 585K
20260507T00Z_MSC_RDPS_SpecificHumidity_IsbL-0600_RLatLon0.09_PT080H.grib2 2026-05-07 03:20 640K
20260507T00Z_MSC_RDPS_SpecificHumidity_IsbL-0650_RLatLon0.09_PT080H.grib2 2026-05-07 03:20 560K
20260507T00Z_MSC_RDPS_SpecificHumidity_IsbL-0700_RLatLon0.09_PT080H.grib2 2026-05-07 03:20 606K
20260507T00Z_MSC_RDPS_SpecificHumidity_IsbL-0750_RLatLon0.09_PT080H.grib2 2026-05-07 03:20 662K
20260507T00Z_MSC_RDPS_SpecificHumidity_IsbL-0800_RLatLon0.09_PT080H.grib2 2026-05-07 03:20 752K
20260507T00Z_MSC_RDPS_SpecificHumidity_IsbL-0850_RLatLon0.09_PT080H.grib2 2026-05-07 03:20 820K
20260507T00Z_MSC_RDPS_SpecificHumidity_IsbL-0875_RLatLon0.09_PT080H.grib2 2026-05-07 03:20 837K
20260507T00Z_MSC_RDPS_SpecificHumidity_IsbL-0900_RLatLon0.09_PT080H.grib2 2026-05-07 03:20 845K
20260507T00Z_MSC_RDPS_SpecificHumidity_IsbL-0925_RLatLon0.09_PT080H.grib2 2026-05-07 03:20 847K
20260507T00Z_MSC_RDPS_SpecificHumidity_IsbL-0950_RLatLon0.09_PT080H.grib2 2026-05-07 03:20 846K
20260507T00Z_MSC_RDPS_SpecificHumidity_IsbL-0970_RLatLon0.09_PT080H.grib2 2026-05-07 03:20 700K
20260507T00Z_MSC_RDPS_SpecificHumidity_IsbL-0985_RLatLon0.09_PT080H.grib2 2026-05-07 03:20 692K
20260507T00Z_MSC_RDPS_SpecificHumidity_IsbL-1000_RLatLon0.09_PT080H.grib2 2026-05-07 03:20 687K
20260507T00Z_MSC_RDPS_SpecificHumidity_IsbL-1015_RLatLon0.09_PT080H.grib2 2026-05-07 03:20 679K
20260507T00Z_MSC_RDPS_SpecificHumidity_Sfc_RLatLon0.09_PT080H.grib2 2026-05-07 03:20 305K
20260507T00Z_MSC_RDPS_StormRelativeHelicity_EtaL-10000_RLatLon0.09_PT080H.grib2 2026-05-07 03:20 1.1M
20260507T00Z_MSC_RDPS_StormSeverityIndex_EtaL-10000_RLatLon0.09_PT080H.grib2 2026-05-07 03:20 1.2M
20260507T00Z_MSC_RDPS_Thickness_IsbL-0850to0700_RLatLon0.09_PT080H.grib2 2026-05-07 03:20 249K
20260507T00Z_MSC_RDPS_Thickness_IsbL-1000to0500_RLatLon0.09_PT080H.grib2 2026-05-07 03:20 196K
20260507T00Z_MSC_RDPS_Thickness_IsbL-1000to0850_RLatLon0.09_PT080H.grib2 2026-05-07 03:20 261K
20260507T00Z_MSC_RDPS_TotalCloudCover_Sfc_RLatLon0.09_PT080H.grib2 2026-05-07 03:20 675K
20260507T00Z_MSC_RDPS_TotalTotalsIndex_Sfc_RLatLon0.09_PT080H.grib2 2026-05-07 03:20 2.5M
20260507T00Z_MSC_RDPS_UVIndex-ClearSky_Sfc_RLatLon0.09_PT080H.grib2 2026-05-07 03:20 111K
20260507T00Z_MSC_RDPS_UVIndex_Sfc_RLatLon0.09_PT080H.grib2 2026-05-07 03:20 198K
20260507T00Z_MSC_RDPS_UpwardLongwaveRadiationFlux_NTAtm_RLatLon0.09_PT080H.grib2 2026-05-07 03:20 492K
20260507T00Z_MSC_RDPS_UpwardShortwaveRadiationFlux_NTAtm_RLatLon0.09_PT080H.grib2 2026-05-07 03:20 159K
20260507T00Z_MSC_RDPS_VerticalVelocity_IsbL-0250_RLatLon0.09_PT080H.grib2 2026-05-07 03:20 544K
20260507T00Z_MSC_RDPS_VerticalVelocity_IsbL-0500_RLatLon0.09_PT080H.grib2 2026-05-07 03:20 539K
20260507T00Z_MSC_RDPS_VerticalVelocity_IsbL-0700_RLatLon0.09_PT080H.grib2 2026-05-07 03:20 593K
20260507T00Z_MSC_RDPS_VerticalVelocity_IsbL-0850_RLatLon0.09_PT080H.grib2 2026-05-07 03:20 860K
20260507T00Z_MSC_RDPS_VerticalWindShear_EtaL-6500_RLatLon0.09_PT080H.grib2 2026-05-07 03:20 1.2M
20260507T00Z_MSC_RDPS_WindChill_Sfc_RLatLon0.09_PT080H.grib2 2026-05-07 03:20 1.2M
20260507T00Z_MSC_RDPS_WindDir_AGL-10m_RLatLon0.09_PT080H.grib2 2026-05-07 03:20 967K
20260507T00Z_MSC_RDPS_WindDir_AGL-120m_RLatLon0.09_PT080H.grib2 2026-05-07 03:20 600K
20260507T00Z_MSC_RDPS_WindDir_AGL-40m_RLatLon0.09_PT080H.grib2 2026-05-07 03:20 633K
20260507T00Z_MSC_RDPS_WindDir_AGL-80m_RLatLon0.09_PT080H.grib2 2026-05-07 03:20 613K
20260507T00Z_MSC_RDPS_WindDir_IsbL-0001_RLatLon0.09_PT080H.grib2 2026-05-07 03:20 292K
20260507T00Z_MSC_RDPS_WindDir_IsbL-0005_RLatLon0.09_PT080H.grib2 2026-05-07 03:20 378K
20260507T00Z_MSC_RDPS_WindDir_IsbL-0010_RLatLon0.09_PT080H.grib2 2026-05-07 03:20 384K
20260507T00Z_MSC_RDPS_WindDir_IsbL-0020_RLatLon0.09_PT080H.grib2 2026-05-07 03:20 426K
20260507T00Z_MSC_RDPS_WindDir_IsbL-0030_RLatLon0.09_PT080H.grib2 2026-05-07 03:20 421K
20260507T00Z_MSC_RDPS_WindDir_IsbL-0050_RLatLon0.09_PT080H.grib2 2026-05-07 03:20 437K
20260507T00Z_MSC_RDPS_WindDir_IsbL-0100_RLatLon0.09_PT080H.grib2 2026-05-07 03:20 417K
20260507T00Z_MSC_RDPS_WindDir_IsbL-0150_RLatLon0.09_PT080H.grib2 2026-05-07 03:20 416K
20260507T00Z_MSC_RDPS_WindDir_IsbL-0175_RLatLon0.09_PT080H.grib2 2026-05-07 03:20 435K
20260507T00Z_MSC_RDPS_WindDir_IsbL-0200_RLatLon0.09_PT080H.grib2 2026-05-07 03:20 450K
20260507T00Z_MSC_RDPS_WindDir_IsbL-0225_RLatLon0.09_PT080H.grib2 2026-05-07 03:20 462K
20260507T00Z_MSC_RDPS_WindDir_IsbL-0250_RLatLon0.09_PT080H.grib2 2026-05-07 03:20 466K
20260507T00Z_MSC_RDPS_WindDir_IsbL-0275_RLatLon0.09_PT080H.grib2 2026-05-07 03:20 488K
20260507T00Z_MSC_RDPS_WindDir_IsbL-0300_RLatLon0.09_PT080H.grib2 2026-05-07 03:20 481K
20260507T00Z_MSC_RDPS_WindDir_IsbL-0350_RLatLon0.09_PT080H.grib2 2026-05-07 03:20 501K
20260507T00Z_MSC_RDPS_WindDir_IsbL-0400_RLatLon0.09_PT080H.grib2 2026-05-07 03:20 526K
20260507T00Z_MSC_RDPS_WindDir_IsbL-0450_RLatLon0.09_PT080H.grib2 2026-05-07 03:20 547K
20260507T00Z_MSC_RDPS_WindDir_IsbL-0500_RLatLon0.09_PT080H.grib2 2026-05-07 03:20 563K
20260507T00Z_MSC_RDPS_WindDir_IsbL-0550_RLatLon0.09_PT080H.grib2 2026-05-07 03:20 572K
20260507T00Z_MSC_RDPS_WindDir_IsbL-0600_RLatLon0.09_PT080H.grib2 2026-05-07 03:20 592K
20260507T00Z_MSC_RDPS_WindDir_IsbL-0650_RLatLon0.09_PT080H.grib2 2026-05-07 03:20 628K
20260507T00Z_MSC_RDPS_WindDir_IsbL-0700_RLatLon0.09_PT080H.grib2 2026-05-07 03:20 671K
20260507T00Z_MSC_RDPS_WindDir_IsbL-0750_RLatLon0.09_PT080H.grib2 2026-05-07 03:20 720K
20260507T00Z_MSC_RDPS_WindDir_IsbL-0800_RLatLon0.09_PT080H.grib2 2026-05-07 03:20 788K
20260507T00Z_MSC_RDPS_WindDir_IsbL-0850_RLatLon0.09_PT080H.grib2 2026-05-07 03:20 856K
20260507T00Z_MSC_RDPS_WindDir_IsbL-0875_RLatLon0.09_PT080H.grib2 2026-05-07 03:20 879K
20260507T00Z_MSC_RDPS_WindDir_IsbL-0900_RLatLon0.09_PT080H.grib2 2026-05-07 03:20 896K
20260507T00Z_MSC_RDPS_WindDir_IsbL-0925_RLatLon0.09_PT080H.grib2 2026-05-07 03:20 908K
20260507T00Z_MSC_RDPS_WindDir_IsbL-0950_RLatLon0.09_PT080H.grib2 2026-05-07 03:20 911K
20260507T00Z_MSC_RDPS_WindDir_IsbL-0970_RLatLon0.09_PT080H.grib2 2026-05-07 03:20 914K
20260507T00Z_MSC_RDPS_WindDir_IsbL-0985_RLatLon0.09_PT080H.grib2 2026-05-07 03:20 923K
20260507T00Z_MSC_RDPS_WindDir_IsbL-1000_RLatLon0.09_PT080H.grib2 2026-05-07 03:20 942K
20260507T00Z_MSC_RDPS_WindDir_IsbL-1015_RLatLon0.09_PT080H.grib2 2026-05-07 03:20 960K
20260507T00Z_MSC_RDPS_WindGust-Max_AGL-10m_RLatLon0.09_PT080H.grib2 2026-05-07 03:20 1.0M
20260507T00Z_MSC_RDPS_WindGust-Min_AGL-10m_RLatLon0.09_PT080H.grib2 2026-05-07 03:20 1.0M
20260507T00Z_MSC_RDPS_WindGust_AGL-10m_RLatLon0.09_PT080H.grib2 2026-05-07 03:20 1.0M
20260507T00Z_MSC_RDPS_WindSpeed_AGL-10m_RLatLon0.09_PT080H.grib2 2026-05-07 03:20 846K
20260507T00Z_MSC_RDPS_WindSpeed_AGL-120m_RLatLon0.09_PT080H.grib2 2026-05-07 03:20 545K
20260507T00Z_MSC_RDPS_WindSpeed_AGL-40m_RLatLon0.09_PT080H.grib2 2026-05-07 03:20 677K
20260507T00Z_MSC_RDPS_WindSpeed_AGL-80m_RLatLon0.09_PT080H.grib2 2026-05-07 03:20 675K
20260507T00Z_MSC_RDPS_WindSpeed_IsbL-0001_RLatLon0.09_PT080H.grib2 2026-05-07 03:20 252K
20260507T00Z_MSC_RDPS_WindSpeed_IsbL-0005_RLatLon0.09_PT080H.grib2 2026-05-07 03:20 294K
20260507T00Z_MSC_RDPS_WindSpeed_IsbL-0010_RLatLon0.09_PT080H.grib2 2026-05-07 03:20 396K
20260507T00Z_MSC_RDPS_WindSpeed_IsbL-0020_RLatLon0.09_PT080H.grib2 2026-05-07 03:20 323K
20260507T00Z_MSC_RDPS_WindSpeed_IsbL-0030_RLatLon0.09_PT080H.grib2 2026-05-07 03:20 317K
20260507T00Z_MSC_RDPS_WindSpeed_IsbL-0050_RLatLon0.09_PT080H.grib2 2026-05-07 03:20 447K
20260507T00Z_MSC_RDPS_WindSpeed_IsbL-0100_RLatLon0.09_PT080H.grib2 2026-05-07 03:20 475K
20260507T00Z_MSC_RDPS_WindSpeed_IsbL-0150_RLatLon0.09_PT080H.grib2 2026-05-07 03:20 374K
20260507T00Z_MSC_RDPS_WindSpeed_IsbL-0175_RLatLon0.09_PT080H.grib2 2026-05-07 03:20 421K
20260507T00Z_MSC_RDPS_WindSpeed_IsbL-0200_RLatLon0.09_PT080H.grib2 2026-05-07 03:20 435K
20260507T00Z_MSC_RDPS_WindSpeed_IsbL-0225_RLatLon0.09_PT080H.grib2 2026-05-07 03:20 443K
20260507T00Z_MSC_RDPS_WindSpeed_IsbL-0250_RLatLon0.09_PT080H.grib2 2026-05-07 03:20 447K
20260507T00Z_MSC_RDPS_WindSpeed_IsbL-0275_RLatLon0.09_PT080H.grib2 2026-05-07 03:20 467K
20260507T00Z_MSC_RDPS_WindSpeed_IsbL-0300_RLatLon0.09_PT080H.grib2 2026-05-07 03:20 462K
20260507T00Z_MSC_RDPS_WindSpeed_IsbL-0350_RLatLon0.09_PT080H.grib2 2026-05-07 03:20 472K
20260507T00Z_MSC_RDPS_WindSpeed_IsbL-0400_RLatLon0.09_PT080H.grib2 2026-05-07 03:20 478K
20260507T00Z_MSC_RDPS_WindSpeed_IsbL-0450_RLatLon0.09_PT080H.grib2 2026-05-07 03:20 464K
20260507T00Z_MSC_RDPS_WindSpeed_IsbL-0500_RLatLon0.09_PT080H.grib2 2026-05-07 03:20 464K
20260507T00Z_MSC_RDPS_WindSpeed_IsbL-0550_RLatLon0.09_PT080H.grib2 2026-05-07 03:20 463K
20260507T00Z_MSC_RDPS_WindSpeed_IsbL-0600_RLatLon0.09_PT080H.grib2 2026-05-07 03:20 471K
20260507T00Z_MSC_RDPS_WindSpeed_IsbL-0650_RLatLon0.09_PT080H.grib2 2026-05-07 03:20 608K
20260507T00Z_MSC_RDPS_WindSpeed_IsbL-0700_RLatLon0.09_PT080H.grib2 2026-05-07 03:20 634K
20260507T00Z_MSC_RDPS_WindSpeed_IsbL-0750_RLatLon0.09_PT080H.grib2 2026-05-07 03:20 710K
20260507T00Z_MSC_RDPS_WindSpeed_IsbL-0800_RLatLon0.09_PT080H.grib2 2026-05-07 03:20 762K
20260507T00Z_MSC_RDPS_WindSpeed_IsbL-0850_RLatLon0.09_PT080H.grib2 2026-05-07 03:20 818K
20260507T00Z_MSC_RDPS_WindSpeed_IsbL-0875_RLatLon0.09_PT080H.grib2 2026-05-07 03:20 837K
20260507T00Z_MSC_RDPS_WindSpeed_IsbL-0900_RLatLon0.09_PT080H.grib2 2026-05-07 03:20 851K
20260507T00Z_MSC_RDPS_WindSpeed_IsbL-0925_RLatLon0.09_PT080H.grib2 2026-05-07 03:20 864K
20260507T00Z_MSC_RDPS_WindSpeed_IsbL-0950_RLatLon0.09_PT080H.grib2 2026-05-07 03:20 866K
20260507T00Z_MSC_RDPS_WindSpeed_IsbL-0970_RLatLon0.09_PT080H.grib2 2026-05-07 03:20 863K
20260507T00Z_MSC_RDPS_WindSpeed_IsbL-0985_RLatLon0.09_PT080H.grib2 2026-05-07 03:20 858K
20260507T00Z_MSC_RDPS_WindSpeed_IsbL-1000_RLatLon0.09_PT080H.grib2 2026-05-07 03:20 853K
20260507T00Z_MSC_RDPS_WindSpeed_IsbL-1015_RLatLon0.09_PT080H.grib2 2026-05-07 03:20 846K
20260507T00Z_MSC_RDPS_WindU_AGL-10m_RLatLon0.09_PT080H.grib2 2026-05-07 03:20 433K
20260507T00Z_MSC_RDPS_WindU_AGL-120m_RLatLon0.09_PT080H.grib2 2026-05-07 03:20 537K
20260507T00Z_MSC_RDPS_WindU_AGL-40m_RLatLon0.09_PT080H.grib2 2026-05-07 03:20 541K
20260507T00Z_MSC_RDPS_WindU_AGL-80m_RLatLon0.09_PT080H.grib2 2026-05-07 03:20 539K
20260507T00Z_MSC_RDPS_WindU_IsbL-0001_RLatLon0.09_PT080H.grib2 2026-05-07 03:20 293K
20260507T00Z_MSC_RDPS_WindU_IsbL-0005_RLatLon0.09_PT080H.grib2 2026-05-07 03:20 286K
20260507T00Z_MSC_RDPS_WindU_IsbL-0010_RLatLon0.09_PT080H.grib2 2026-05-07 03:20 295K
20260507T00Z_MSC_RDPS_WindU_IsbL-0020_RLatLon0.09_PT080H.grib2 2026-05-07 03:20 352K
20260507T00Z_MSC_RDPS_WindU_IsbL-0030_RLatLon0.09_PT080H.grib2 2026-05-07 03:20 311K
20260507T00Z_MSC_RDPS_WindU_IsbL-0050_RLatLon0.09_PT080H.grib2 2026-05-07 03:20 339K
20260507T00Z_MSC_RDPS_WindU_IsbL-0100_RLatLon0.09_PT080H.grib2 2026-05-07 03:20 431K
20260507T00Z_MSC_RDPS_WindU_IsbL-0150_RLatLon0.09_PT080H.grib2 2026-05-07 03:20 366K
20260507T00Z_MSC_RDPS_WindU_IsbL-0175_RLatLon0.09_PT080H.grib2 2026-05-07 03:20 414K
20260507T00Z_MSC_RDPS_WindU_IsbL-0200_RLatLon0.09_PT080H.grib2 2026-05-07 03:20 428K
20260507T00Z_MSC_RDPS_WindU_IsbL-0225_RLatLon0.09_PT080H.grib2 2026-05-07 03:20 435K
20260507T00Z_MSC_RDPS_WindU_IsbL-0250_RLatLon0.09_PT080H.grib2 2026-05-07 03:20 437K
20260507T00Z_MSC_RDPS_WindU_IsbL-0275_RLatLon0.09_PT080H.grib2 2026-05-07 03:20 354K
20260507T00Z_MSC_RDPS_WindU_IsbL-0300_RLatLon0.09_PT080H.grib2 2026-05-07 03:20 449K
20260507T00Z_MSC_RDPS_WindU_IsbL-0350_RLatLon0.09_PT080H.grib2 2026-05-07 03:20 460K
20260507T00Z_MSC_RDPS_WindU_IsbL-0400_RLatLon0.09_PT080H.grib2 2026-05-07 03:20 466K
20260507T00Z_MSC_RDPS_WindU_IsbL-0450_RLatLon0.09_PT080H.grib2 2026-05-07 03:20 468K
20260507T00Z_MSC_RDPS_WindU_IsbL-0500_RLatLon0.09_PT080H.grib2 2026-05-07 03:20 470K
20260507T00Z_MSC_RDPS_WindU_IsbL-0550_RLatLon0.09_PT080H.grib2 2026-05-07 03:20 453K
20260507T00Z_MSC_RDPS_WindU_IsbL-0600_RLatLon0.09_PT080H.grib2 2026-05-07 03:20 462K
20260507T00Z_MSC_RDPS_WindU_IsbL-0650_RLatLon0.09_PT080H.grib2 2026-05-07 03:20 481K
20260507T00Z_MSC_RDPS_WindU_IsbL-0700_RLatLon0.09_PT080H.grib2 2026-05-07 03:20 503K
20260507T00Z_MSC_RDPS_WindU_IsbL-0750_RLatLon0.09_PT080H.grib2 2026-05-07 03:20 531K
20260507T00Z_MSC_RDPS_WindU_IsbL-0800_RLatLon0.09_PT080H.grib2 2026-05-07 03:20 577K
20260507T00Z_MSC_RDPS_WindU_IsbL-0850_RLatLon0.09_PT080H.grib2 2026-05-07 03:20 761K
20260507T00Z_MSC_RDPS_WindU_IsbL-0875_RLatLon0.09_PT080H.grib2 2026-05-07 03:20 779K
20260507T00Z_MSC_RDPS_WindU_IsbL-0900_RLatLon0.09_PT080H.grib2 2026-05-07 03:20 794K
20260507T00Z_MSC_RDPS_WindU_IsbL-0925_RLatLon0.09_PT080H.grib2 2026-05-07 03:20 803K
20260507T00Z_MSC_RDPS_WindU_IsbL-0950_RLatLon0.09_PT080H.grib2 2026-05-07 03:20 802K
20260507T00Z_MSC_RDPS_WindU_IsbL-0970_RLatLon0.09_PT080H.grib2 2026-05-07 03:20 796K
20260507T00Z_MSC_RDPS_WindU_IsbL-0985_RLatLon0.09_PT080H.grib2 2026-05-07 03:20 791K
20260507T00Z_MSC_RDPS_WindU_IsbL-1000_RLatLon0.09_PT080H.grib2 2026-05-07 03:20 833K
20260507T00Z_MSC_RDPS_WindU_IsbL-1015_RLatLon0.09_PT080H.grib2 2026-05-07 03:20 828K
20260507T00Z_MSC_RDPS_WindV_AGL-10m_RLatLon0.09_PT080H.grib2 2026-05-07 03:20 433K
20260507T00Z_MSC_RDPS_WindV_AGL-120m_RLatLon0.09_PT080H.grib2 2026-05-07 03:20 538K
20260507T00Z_MSC_RDPS_WindV_AGL-40m_RLatLon0.09_PT080H.grib2 2026-05-07 03:20 541K
20260507T00Z_MSC_RDPS_WindV_AGL-80m_RLatLon0.09_PT080H.grib2 2026-05-07 03:20 540K
20260507T00Z_MSC_RDPS_WindV_IsbL-0001_RLatLon0.09_PT080H.grib2 2026-05-07 03:20 246K
20260507T00Z_MSC_RDPS_WindV_IsbL-0005_RLatLon0.09_PT080H.grib2 2026-05-07 03:20 286K
20260507T00Z_MSC_RDPS_WindV_IsbL-0010_RLatLon0.09_PT080H.grib2 2026-05-07 03:20 297K
20260507T00Z_MSC_RDPS_WindV_IsbL-0020_RLatLon0.09_PT080H.grib2 2026-05-07 03:20 313K
20260507T00Z_MSC_RDPS_WindV_IsbL-0030_RLatLon0.09_PT080H.grib2 2026-05-07 03:20 310K
20260507T00Z_MSC_RDPS_WindV_IsbL-0050_RLatLon0.09_PT080H.grib2 2026-05-07 03:20 338K
20260507T00Z_MSC_RDPS_WindV_IsbL-0100_RLatLon0.09_PT080H.grib2 2026-05-07 03:20 426K
20260507T00Z_MSC_RDPS_WindV_IsbL-0150_RLatLon0.09_PT080H.grib2 2026-05-07 03:20 388K
20260507T00Z_MSC_RDPS_WindV_IsbL-0175_RLatLon0.09_PT080H.grib2 2026-05-07 03:20 413K
20260507T00Z_MSC_RDPS_WindV_IsbL-0200_RLatLon0.09_PT080H.grib2 2026-05-07 03:20 330K
20260507T00Z_MSC_RDPS_WindV_IsbL-0225_RLatLon0.09_PT080H.grib2 2026-05-07 03:20 335K
20260507T00Z_MSC_RDPS_WindV_IsbL-0250_RLatLon0.09_PT080H.grib2 2026-05-07 03:20 364K
20260507T00Z_MSC_RDPS_WindV_IsbL-0275_RLatLon0.09_PT080H.grib2 2026-05-07 03:20 378K
20260507T00Z_MSC_RDPS_WindV_IsbL-0300_RLatLon0.09_PT080H.grib2 2026-05-07 03:20 373K
20260507T00Z_MSC_RDPS_WindV_IsbL-0350_RLatLon0.09_PT080H.grib2 2026-05-07 03:20 356K
20260507T00Z_MSC_RDPS_WindV_IsbL-0400_RLatLon0.09_PT080H.grib2 2026-05-07 03:20 361K
20260507T00Z_MSC_RDPS_WindV_IsbL-0450_RLatLon0.09_PT080H.grib2 2026-05-07 03:20 364K
20260507T00Z_MSC_RDPS_WindV_IsbL-0500_RLatLon0.09_PT080H.grib2 2026-05-07 03:20 466K
20260507T00Z_MSC_RDPS_WindV_IsbL-0550_RLatLon0.09_PT080H.grib2 2026-05-07 03:20 466K
20260507T00Z_MSC_RDPS_WindV_IsbL-0600_RLatLon0.09_PT080H.grib2 2026-05-07 03:20 476K
20260507T00Z_MSC_RDPS_WindV_IsbL-0650_RLatLon0.09_PT080H.grib2 2026-05-07 03:20 492K
20260507T00Z_MSC_RDPS_WindV_IsbL-0700_RLatLon0.09_PT080H.grib2 2026-05-07 03:20 498K
20260507T00Z_MSC_RDPS_WindV_IsbL-0750_RLatLon0.09_PT080H.grib2 2026-05-07 03:20 527K
20260507T00Z_MSC_RDPS_WindV_IsbL-0800_RLatLon0.09_PT080H.grib2 2026-05-07 03:20 571K
20260507T00Z_MSC_RDPS_WindV_IsbL-0850_RLatLon0.09_PT080H.grib2 2026-05-07 03:20 622K
20260507T00Z_MSC_RDPS_WindV_IsbL-0875_RLatLon0.09_PT080H.grib2 2026-05-07 03:20 639K
20260507T00Z_MSC_RDPS_WindV_IsbL-0900_RLatLon0.09_PT080H.grib2 2026-05-07 03:20 653K
20260507T00Z_MSC_RDPS_WindV_IsbL-0925_RLatLon0.09_PT080H.grib2 2026-05-07 03:20 661K
20260507T00Z_MSC_RDPS_WindV_IsbL-0950_RLatLon0.09_PT080H.grib2 2026-05-07 03:20 802K
20260507T00Z_MSC_RDPS_WindV_IsbL-0970_RLatLon0.09_PT080H.grib2 2026-05-07 03:20 797K
20260507T00Z_MSC_RDPS_WindV_IsbL-0985_RLatLon0.09_PT080H.grib2 2026-05-07 03:20 791K
20260507T00Z_MSC_RDPS_WindV_IsbL-1000_RLatLon0.09_PT080H.grib2 2026-05-07 03:20 833K
20260507T00Z_MSC_RDPS_WindV_IsbL-1015_RLatLon0.09_PT080H.grib2 2026-05-07 03:20 828K